SKY MUSTER 2 (NBN1B)

Last updated on Tue Sep 22 2026 00:03:14 GMT+0000 (Coordinated Universal Time)

1 41794U 16060B 26264.56294771 -.00000248 00000+0 00000+0 0 9992 2 41794 0.0181 239.4475 0001514 289.3543 179.1211 1.00272455 36485
UTC large
Height (km)
Speed (km/s)
/
Latitude / Longitude
Inclination (degrees)
Orbital Period (minutes)
Azimuth
Elevation
Range (km)
Doppler Factor

Next 0 passes for location: London (51.5072 / 0.1276)

No passes found over London.
SKY MUSTER 2 (NBN1B)